Notices

What's New in latest Release from April 7th, 2021:

- Updated Glossary, including Speed of Maximum Gust, and Total Hourly Precipitation

- Updated national and regional climate services offices contacts and prices information

- Addition of station inventory lists for 1981-2010, 1971-2000, and 1961-1990 Normals.

If you haven't already, please take our survey and provide feedback about our website: https://eccc.sondage-survey.ca/f/LanguageSelection.aspx?s=442ca660-fcf1-47c0-95a9-59707d6fd709

Hourly Data Report for March 03, 2017

MIRAMICHI RCS
NEW BRUNSWICK

47°00'34.000" N
65°27'54.000" W
33.00 m
8100989
71744
ACQ

Download Data

Hourly Data (March 2017)
Hourly Data Report for March 3, 2017
TIME
LST
Temp Definition
°C
Dew Point Definition
°C
Rel Hum Definition
%
Precip. Amount Definition
mm

Wind Dir Definition
10's deg

Wind Spd Definition
km/h
Visibility Definition
km
Stn Press Definition
kPa
Hmdx Definition


Wind Chill Definition


Weather Definition


00:00 -8.6 -12.5 73 0.0 29 20   99.58   -16 LegendNANA
01:00 -9.8 -15.4 64 0.0 30 25   99.69   -19 LegendNANA
02:00 -10.7 -15.8 66 0.0 28 25   99.87   -20 LegendNANA
03:00 -11.1 -15.8 68 0.0 28 20   99.95   -19 LegendNANA
04:00 -11.3 -15.5 71 0.0 26 10   100.02   -17 LegendNANA
05:00 -11.8 -16.1 70 0.0 27 10   100.08   -17 LegendNANA
06:00 -12.5 -16.2 73 0.0 27 13   100.14   -19 LegendNANA
07:00 -13.0 -16.5 75 0.0 26 10   100.24   -19 LegendNANA
08:00 -12.1 -16.4 71 0.0 27 14   100.33   -19 LegendNANA
09:00 -11.0 -16.6 63 0.0 27 23   100.41   -20 LegendNANA
10:00 -10.0 -16.4 59 0.0 28 27   100.48   -19 LegendNANA
11:00 -8.7 -15.3 59 0.0 29 24   100.55   -17 LegendNANA
12:00 -7.7 -15.2 55 0.0 29 23   100.56   -15 LegendNANA
13:00 -6.9 -15.1 52 0.0 28 26   100.57   -15 LegendNANA
14:00 -6.3 -15.5 48 0.0 29 25   100.60   -14 LegendNANA
15:00 -6.2 -14.9 50 0.0 29 24   100.64   -14 LegendNANA
16:00 -6.6 -15.5 49 0.0 30 24   100.71   -14 LegendNANA
17:00 -7.3 -16.2 49 0.0 28 25   100.80   -15 LegendNANA
18:00 -8.5 -17.3 49 0.0 30 18   100.93   -16 LegendNANA
19:00 -9.9 -17.2 55 0.0 30 14   101.06   -16 LegendNANA
20:00 -11.0 -17.7 58 0.0 30 17   101.15   -18 LegendNANA
21:00 -11.9 -18.1 60 0.0 28 17   101.22   -20 LegendNANA
22:00 -12.6 -18.9 59 0.0 27 18   101.24   -21 LegendNANA
23:00 -13.4 -19.1 62 0.0 26 16   101.26   -21 LegendNANA

Notes on Data Quality.

Legend

  • E = Estimated
  • M = Missing
  • NA = Not Available*
  • [empty] = Indicates an unobserved value
Date modified: